User: anonymous   Login
Location: Bangkok
(13.7500°N, 100.5170°E)
Time: 09:56:44
(UTC+07:00)
Language:

Cosmos 1898 Rocket - Orbit

View from above orbital plane
View from above orbital plane
View from above satellite
View from above satellite

Ground track
Ground track

The orbit data is extracted from the following two-line orbital elements,

1 18586U 87098B   15109.54188462  .00000367  00000-0  13357-3 0  9992
2 18586 074.0060 309.2167 0021358 194.8219 195.4338 14.36600801433965
Epoch (UTC): 19 April 2015 13:00:18
Eccentricity: 0.0021358
inclination: 74.0060°
perigee height: 754 km
apogee height: 785 km
right ascension of ascending node: 309.2167°
argument of perigee: 194.8219°
revolutions per day: 14.36600801
mean anomaly at epoch: 195.4338°
orbit number at epoch: 43396

The dashed part of the orbit path shows where the satellite is in the earth's shadow,  

DLR